Location: Hemaruka
(51.7801°N, 111.0917°W)
Time: 10:50:57
(UTC+00:00)

NOAA 15 - Pass Details

Date: 09 December 2023
Orbit: 797 x 810 km, 98.6° (Epoch: 02 March)

Event Time Altitude Azimuth Distance (km) Brightness Sun altitude
Rises 02:36:11 0° 181° (S) 3,315 7.8 -29.9°
Reaches altitude 10° 02:38:36 10° 187° (S) 2,387 7.1 -30.3°
Maximum altitude 02:43:41 48° 261° (W) 1,056 5.5 -31.1°
Drops below altitude 10° 02:48:48 10° 335° (NNW) 2,396 7.3 -31.9°
Sets 02:51:14 0° 342° (NNW) 3,329 8.1 -32.2°
